DW3807 Weather Reports


Display with metric or nautical units.
time (UTC)temp
F
wind
direction
speed
MPH
gust
MPH
rain 1hr
in
rain 24hr
in
rain mn
in
humidity
%
barometer
mb
20260507193020 55 307 3.0 7.0 0.00 0.00 0.00 50 1012.8
20260507192517 55 310 3.0 8.0 0.00 0.00 0.00 48 1012.9
20260507192021 55 343 3.0 8.0 0.00 0.00 0.00 49 1012.9
20260507191518 55 318 3.0 6.0 0.00 0.00 0.00 50 1013.0
20260507191018 54 322 3.0 8.0 0.00 0.00 0.00 49 1013.0
20260507190519 54 293 3.0 8.0 0.00 0.00 0.00 50 1013.1
20260507190018 54 352 2.0 6.0 0.00 0.00 0.00 50 1013.1
20260507185521 54 204 3.0 7.0 0.00 0.00 0.00 50 1013.2
20260507185038 53 298 3.0 7.0 0.00 0.00 0.00 50 1013.1
20260507184520 53 6 4.0 9.0 0.00 0.00 0.00 50 1013.1
20260507184039 54 264 3.0 10.0 0.00 0.00 0.00 49 1013.2
20260507183518 53 268 2.0 6.0 0.00 0.00 0.00 50 1013.2
20260507183020 53 292 3.0 10.0 0.00 0.00 0.00 50 1013.2
20260507182519 53 167 3.0 7.0 0.00 0.00 0.00 49 1013.2
20260507182019 53 306 3.0 8.0 0.00 0.00 0.00 51 1013.2
20260507181518 52 314 3.0 8.0 0.00 0.00 0.00 51 1013.1
20260507181041 52 258 3.0 8.0 0.00 0.00 0.00 50 1013.2
20260507180519 52 262 4.0 9.0 0.00 0.00 0.00 51 1013.1
20260507180019 52 305 5.0 11.0 0.00 0.00 0.00 51 1013.2
20260507175519 52 310 4.0 9.0 0.00 0.00 0.00 51 1013.2
20260507175021 52 343 4.0 7.0 0.00 0.00 0.00 51 1013.3
20260507174519 52 281 4.0 8.0 0.00 0.00 0.00 50 1013.3
20260507174019 51 299 4.0 11.0 0.00 0.00 0.00 52 1013.4
20260507173521 52 293 5.0 9.0 0.00 0.00 0.00 50 1013.4
20260507173019 52 306 4.0 11.0 0.00 0.00 0.00 50 1013.5
20260507172540 52 284 3.0 8.0 0.00 0.00 0.00 50 1013.6
20260507172019 52 317 3.0 10.0 0.00 0.00 0.00 50 1013.6
20260507171521 52 275 3.0 9.0 0.00 0.00 0.00 51 1013.8
20260507171020 52 312 4.0 10.0 0.00 0.00 0.00 50 1013.8
20260507170520 52 296 3.0 7.0 0.00 0.00 0.00 51 1013.9
20260507165521 52 242 4.0 10.0 0.00 0.00 0.00 51 1014.1
20260507165022 52 195 3.0 7.0 0.00 0.00 0.00 52 1014.1
20260507164520 52 281 4.0 9.0 0.00 0.00 0.00 53 1014.3
20260507164022 51 325 3.0 7.0 0.00 0.00 0.00 53 1014.4
20260507163520 52 244 4.0 12.0 0.00 0.00 0.00 51 1014.5
20260507163020 52 224 3.0 8.0 0.00 0.00 0.00 52 1014.4
20260507162521 52 220 3.0 11.0 0.00 0.00 0.00 52 1014.4
20260507162042 52 215 3.0 8.0 0.00 0.00 0.00 53 1014.5
20260507161520 51 285 4.0 12.0 0.00 0.00 0.00 53 1014.6
20260507161020 51 286 4.0 8.0 0.00 0.00 0.00 54 1014.6
20260507160540 51 296 4.0 9.0 0.00 0.00 0.00 54 1014.5
20260507155520 51 304 3.0 8.0 0.00 0.00 0.00 55 1014.5
20260507155018 51 322 3.0 10.0 0.00 0.00 0.00 55 1014.5
20260507154519 51 271 4.0 11.0 0.00 0.00 0.00 55 1014.5
20260507154018 51 239 3.0 9.0 0.00 0.00 0.00 55 1014.5
20260507153519 51 267 4.0 15.0 0.00 0.00 0.00 55 1014.5
20260507153018 50 245 3.0 8.0 0.00 0.00 0.00 55 1014.4
20260507152520 50 292 3.0 9.0 0.00 0.00 0.00 55 1014.4
20260507152018 51 287 4.0 8.0 0.00 0.00 0.00 54 1014.3
20260507151521 50 207 3.0 7.0 0.00 0.00 0.00 56 1014.3
20260507151021 50 272 3.0 8.0 0.00 0.00 0.00 56 1014.2
20260507150523 50 246 4.0 8.0 0.00 0.00 0.00 56 1014.2
20260507150022 50 228 3.0 10.0 0.00 0.00 0.00 56 1014.2
20260507145519 50 280 4.0 8.0 0.00 0.00 0.00 55 1014.2
20260507145020 50 165 3.0 9.0 0.00 0.00 0.00 56 1014.3
20260507144519 49 276 3.0 9.0 0.00 0.00 0.00 56 1014.3
20260507144020 49 201 3.0 6.0 0.00 0.00 0.00 56 1014.3
20260507143519 50 251 4.0 8.0 0.00 0.00 0.00 56 1014.4
20260507143019 50 233 3.0 6.0 0.00 0.00 0.00 56 1014.4
20260507142519 50 204 3.0 11.0 0.00 0.00 0.00 57 1014.5
20260507142021 49 234 2.0 8.0 0.00 0.00 0.00 58 1014.5
20260507141519 48 245 2.0 5.0 0.00 0.00 0.00 59 1014.5
20260507141019 47 261 3.0 6.0 0.00 0.00 0.00 61 1014.6
20260507140520 47 291 3.0 8.0 0.00 0.00 0.00 61 1014.6
20260507140021 47 315 4.0 11.0 0.00 0.00 0.00 61 1014.6
20260507135539 47 288 3.0 9.0 0.00 0.00 0.00 61 1014.6
20260507135020 48 286 3.0 8.0 0.00 0.00 0.00 61 1014.6
20260507134521 48 259 3.0 6.0 0.00 0.00 0.00 62 1014.5
20260507134019 47 293 2.0 6.0 0.00 0.00 0.00 64 1014.4
20260507133520 47 273 2.0 6.0 0.00 0.00 0.00 64 1014.4
20260507133100 46 269 2.0 5.0 0.00 0.00 0.00 65 1014.4
20260507132541 46 251 3.0 7.0 0.00 0.00 0.00 66 1014.4
20260507132020 46 218 3.0 6.0 0.00 0.00 0.00 67 1014.4
20260507131540 46 290 3.0 9.0 0.00 0.00 0.00 69 1014.3
20260507131020 46 253 2.0 7.0 0.00 0.00 0.00 69 1014.3
20260507130521 46 248 2.0 5.0 0.00 0.00 0.00 70 1014.2
20260507130020 46 223 2.0 7.0 0.00 0.00 0.00 71 1014.3
20260507125520 46 263 2.0 7.0 0.00 0.00 0.00 73 1014.2
20260507125022 45 214 2.0 5.0 0.00 0.00 0.00 73 1014.2
20260507124521 45 274 2.0 6.0 0.00 0.00 0.00 74 1014.2
20260507124021 45 252 2.0 6.0 0.00 0.00 0.00 74 1014.2
20260507123520 44 255 2.0 5.0 0.00 0.00 0.00 75 1014.2
20260507123022 44 285 2.0 5.0 0.00 0.00 0.00 76 1014.2
20260507122520 44 228 2.0 6.0 0.00 0.00 0.00 76 1014.1
20260507122101 43 294 3.0 10.0 0.00 0.00 0.00 78 1014.1
20260507121521 43 227 2.0 6.0 0.00 0.00 0.00 79 1014.1
20260507121022 43 243 2.0 7.0 0.00 0.00 0.00 79 1014.1
20260507120541 43 209 1.0 4.0 0.00 0.00 0.00 81 1014.1
20260507120019 42 247 2.0 4.0 0.00 0.00 0.00 81 1014.1
20260507115520 42 214 1.0 3.0 0.00 0.00 0.00 82 1014.1
20260507115020 42 253 1.0 5.0 0.00 0.00 0.00 82 1014.0
20260507114518 41 273 2.0 4.0 0.00 0.00 0.00 83 1013.9
20260507114018 41 222 1.0 2.0 0.00 0.00 0.00 84 1013.9
20260507113520 40 221 1.0 2.0 0.00 0.00 0.00 85 1013.8
20260507113018 39 244 1.0 3.0 0.00 0.00 0.00 87 1013.7
20260507112522 39 232 1.0 2.0 0.00 0.00 0.00 87 1013.7
20260507112021 37 229 1.0 2.0 0.00 0.00 0.00 89 1013.6
20260507111523 37 238 1.0 1.0 0.00 0.00 0.00 89 1013.6
20260507111038 36 205 1.0 2.0 0.00 0.00 0.00 89 1013.5
20260507110518 35 202 1.0 2.0 0.00 0.00 0.00 90 1013.4
20260507110042 34 256 0.0 1.0 0.00 0.00 0.00 89 1013.4
20260507105519 34 250 1.0 2.0 0.00 0.00 0.00 89 1013.3
20260507105020 34 213 1.0 2.0 0.00 0.00 0.00 89 1013.3
20260507104522 34 36 1.0 2.0 0.00 0.00 0.00 88 1013.3
20260507104021 34 295 0.0 2.0 0.00 0.00 0.00 88 1013.4
20260507103524 34 303 0.0 1.0 0.00 0.00 0.00 88 1013.3
20260507103019 34 289 0.0 1.0 0.00 0.00 0.00 88 1013.3
20260507102519 34 292 0.0 1.0 0.00 0.00 0.00 88 1013.3
20260507102019 34 252 0.0 1.0 0.00 0.00 0.00 88 1013.3
20260507101520 35 228 0.0 2.0 0.00 0.00 0.00 87 1013.3
20260507101020 35 223 0.0 2.0 0.00 0.00 0.00 87 1013.3
20260507100519 35 286 0.0 1.0 0.00 0.00 0.00 87 1013.3
20260507100039 35 230 1.0 1.0 0.00 0.00 0.00 86 1013.3
20260507095521 35 221 1.0 2.0 0.00 0.00 0.00 86 1013.2
20260507095020 35 220 0.0 1.0 0.00 0.00 0.00 86 1013.2
20260507094519 36 230 1.0 1.0 0.00 0.00 0.00 85 1013.2
20260507094020 36 195 0.0 2.0 0.00 0.00 0.00 85 1013.3
20260507093559 36 208 0.0 1.0 0.00 0.00 0.00 85 1013.2
20260507093040 36 225 0.0 2.0 0.00 0.00 0.00 84 1013.2
20260507092540 37 223 1.0 2.0 0.00 0.00 0.00 84 1013.2
20260507092022 37 211 1.0 1.0 0.00 0.00 0.00 83 1013.2
20260507091527 37 213 1.0 1.0 0.00 0.00 0.00 83 1013.3
20260507090520 38 207 1.0 2.0 0.00 0.00 0.00 83 1013.4
20260507085517 38 230 1.0 2.0 0.00 0.00 0.00 82 1013.4
20260507085018 38 253 1.0 2.0 0.00 0.00 0.00 81 1013.4
20260507084519 38 244 1.0 2.0 0.00 0.00 0.00 80 1013.4
20260507084018 38 257 1.0 2.0 0.00 0.00 0.00 80 1013.3
20260507083541 39 260 1.0 2.0 0.00 0.00 0.00 79 1013.4
20260507083021 39 264 1.0 2.0 0.00 0.00 0.00 78 1013.4
20260507082522 39 270 1.0 2.0 0.00 0.00 0.00 78 1013.4
20260507082021 39 279 1.0 2.0 0.00 0.00 0.00 77 1013.4
20260507081521 39 269 1.0 2.0 0.00 0.00 0.00 77 1013.4
20260507081021 39 269 1.0 2.0 0.00 0.00 0.00 76 1013.4
20260507080522 39 277 1.0 2.0 0.00 0.00 0.00 76 1013.5
20260507080018 40 262 1.0 2.0 0.00 0.00 0.00 75 1013.5
20260507075519 40 266 1.0 2.0 0.00 0.00 0.00 75 1013.5
20260507075021 40 256 1.0 2.0 0.00 0.00 0.00 75 1013.6
20260507074519 41 261 1.0 3.0 0.00 0.00 0.00 74 1013.6
20260507074019 41 236 1.0 2.0 0.00 0.00 0.00 74 1013.6
20260507073539 41 253 1.0 3.0 0.00 0.00 0.00 73 1013.5
20260507073021 42 247 1.0 3.0 0.00 0.00 0.00 73 1013.5
20260507072522 42 291 2.0 3.0 0.00 0.00 0.00 73 1013.5
20260507072022 42 274 1.0 4.0 0.00 0.00 0.00 72 1013.5
20260507071559 42 295 2.0 4.0 0.00 0.00 0.00 72 1013.5
20260507071021 42 305 1.0 5.0 0.00 0.00 0.00 73 1013.4
20260507070519 42 300 2.0 6.0 0.00 0.00 0.00 73 1013.4
20260507070019 42 289 1.0 4.0 0.00 0.00 0.00 73 1013.4
20260507065541 42 0.0 0.0 0.00 0.00 0.00 73 1013.4
20260507065019 42 306 2.0 6.0 0.00 0.00 0.00 74 1013.5
20260507064520 42 298 2.0 4.0 0.00 0.00 0.00 75 1013.6
20260507064041 42 300 2.0 4.0 0.00 0.00 0.00 76 1013.6
20260507063524 42 290 1.0 4.0 0.00 0.00 0.00 77 1013.6
20260507063042 42 266 1.0 2.0 0.00 0.00 0.00 78 1013.6
20260507062521 42 268 1.0 3.0 0.00 0.00 0.00 78 1013.5
20260507062021 42 287 1.0 3.0 0.00 0.00 0.00 79 1013.5
20260507061520 42 261 1.0 3.0 0.00 0.00 0.00 79 1013.5
20260507061020 42 0.0 0.0 0.00 0.00 0.00 80 1013.5
20260507060519 42 0.0 0.0 0.00 0.00 0.00 78 1013.5
20260507060020 42 275 1.0 2.0 0.00 0.00 0.00 79 1013.5
20260507055539 41 240 1.0 2.0 0.00 0.00 0.00 79 1013.5
20260507055019 42 284 0.0 1.0 0.00 0.00 0.00 78 1013.5
20260507054520 42 279 0.0 1.0 0.00 0.00 0.00 78 1013.5
20260507054019 42 263 0.0 1.0 0.00 0.00 0.00 78 1013.6
20260507053524 42 288 0.0 1.0 0.00 0.00 0.00 78 1013.5
20260507053023 42 275 1.0 1.0 0.00 0.00 0.00 77 1013.6
20260507052540 41 263 1.0 1.0 0.00 0.00 0.00 76 1013.6
20260507052020 41 265 0.0 1.0 0.00 0.00 0.00 76 1013.7
20260507051600 42 349 0.0 1.0 0.00 0.00 0.00 76 1013.7
20260507051022 42 310 1.0 1.0 0.00 0.00 0.00 76 1013.7
20260507050521 42 290 1.0 2.0 0.00 0.00 0.00 76 1013.7
20260507050018 42 279 1.0 1.0 0.00 0.00 0.00 76 1013.7
20260507045541 42 256 1.0 3.0 0.00 0.00 0.00 75 1013.7
20260507045023 41 266 1.0 2.0 0.00 0.00 0.00 74 1013.8
20260507044521 42 257 1.0 1.0 0.00 0.00 0.00 73 1013.7
20260507044020 42 277 1.0 2.0 0.00 0.00 0.00 73 1013.8
20260507043522 42 235 1.0 2.0 0.00 0.00 0.00 73 1013.8
20260507043025 42 253 1.0 2.0 0.00 0.00 0.00 72 1013.8
20260507042521 42 271 0.0 1.0 0.00 0.00 0.00 71 1013.8
20260507042018 42 275 0.0 1.0 0.00 0.00 0.00 71 1013.8
20260507041521 42 260 1.0 2.0 0.00 0.00 0.00 71 1013.8
20260507041038 42 245 1.0 2.0 0.00 0.00 0.00 70 1013.8
20260507040521 43 252 1.0 2.0 0.00 0.00 0.00 70 1013.9
20260507040021 43 335 1.0 2.0 0.00 0.00 0.00 70 1013.9
20260507035523 0 277 0.0 0.0 0.00 0.00 0.00
20260507035021 44 251 0.0 2.0 0.00 0.00 0.00 68 1013.8
20260507034519 44 258 1.0 2.0 0.00 0.00 0.00 68 1013.8
20260507034020 44 238 1.0 1.0 0.00 0.00 0.00 68 1013.8
20260507033518 45 241 1.0 1.0 0.00 0.00 0.00 67 1013.8
20260507033018 45 207 0.0 1.0 0.00 0.00 0.00 67 1013.8
20260507032521 45 230 0.0 1.0 0.00 0.00 0.00 67 1013.8
20260507032023 45 207 0.0 1.0 0.00 0.00 0.00 67 1013.8
20260507031522 45 207 0.0 1.0 0.00 0.00 0.00 67 1013.8
20260507031019 46 185 0.0 1.0 0.00 0.00 0.00 67 1013.8
20260507030521 46 195 1.0 2.0 0.00 0.00 0.00 67 1013.9
20260507030019 46 193 1.0 2.0 0.00 0.00 0.00 66 1013.9
20260507025519 46 195 1.0 2.0 0.00 0.00 0.00 66 1013.9
20260507025019 46 192 1.0 2.0 0.00 0.00 0.00 65 1013.9
20260507024526 46 206 1.0 2.0 0.00 0.00 0.00 65 1013.9
20260507024026 46 210 1.0 2.0 0.00 0.00 0.00 65 1013.9
20260507023519 46 218 1.0 2.0 0.00 0.00 0.00 64 1013.8
20260507023021 46 246 1.0 2.0 0.00 0.00 0.00 64 1013.8
20260507022543 46 221 0.0 2.0 0.00 0.00 0.00 63 1013.8
20260507022022 47 223 0.0 2.0 0.00 0.00 0.00 62 1013.8
20260507021522 47 223 0.0 2.0 0.00 0.00 0.00 62 1013.7
20260507021021 47 258 1.0 2.0 0.00 0.00 0.00 61 1013.7
20260507020540 47 301 0.0 1.0 0.00 0.00 0.00 61 1013.6
20260507020020 47 257 1.0 2.0 0.00 0.00 0.00 61 1013.5
20260507015521 47 187 0.0 2.0 0.00 0.00 0.00 60 1013.5
20260507015020 47 257 1.0 2.0 0.00 0.00 0.00 60 1013.6
20260507014540 47 248 1.0 2.0 0.00 0.00 0.00 60 1013.5
20260507014020 47 277 1.0 2.0 0.00 0.00 0.00 60 1013.5
20260507013521 48 184 1.0 2.0 0.00 0.00 0.00 59 1013.5
20260507013020 48 170 1.0 2.0 0.00 0.00 0.00 59 1013.5
20260507012537 48 305 0.0 2.0 0.00 0.00 0.00 58 1013.5
20260507012039 48 298 0.0 2.0 0.00 0.00 0.00 58 1013.4
20260507011549 48 48 1.0 2.0 0.00 0.00 0.00 58 1013.4
20260507011030 48 196 0.0 1.0 0.00 0.00 0.00 57 1013.5
20260507010517 49 311 0.0 1.0 0.00 0.00 0.00 56 1013.5
20260507010019 49 284 1.0 2.0 0.00 0.00 0.00 56 1013.5
20260507005521 49 322 1.0 2.0 0.00 0.00 0.00 55 1013.4
20260507005021 49 350 1.0 2.0 0.00 0.00 0.00 55 1013.4
20260507004523 49 322 1.0 2.0 0.00 0.00 0.00 54 1013.4
20260507004021 50 333 1.0 3.0 0.00 0.00 0.00 54 1013.4
20260507003521 50 348 1.0 2.0 0.00 0.00 0.00 54 1013.3
20260507003021 50 311 1.0 3.0 0.00 0.00 0.00 54 1013.2
20260507002520 50 282 1.0 2.0 0.00 0.00 0.00 54 1013.2
20260507002040 50 268 1.0 4.0 0.00 0.00 0.00 53 1013.2
20260507001519 50 312 2.0 5.0 0.00 0.00 0.00 52 1013.0
20260507001040 51 318 2.0 5.0 0.00 0.00 0.00 52 1013.0
20260507000539 51 315 2.0 5.0 0.00 0.00 0.00 52 1013.0
20260507000019 51 217 2.0 6.0 0.00 0.00 0.00 52 1013.1
20260506235519 51 298 2.0 5.0 0.00 0.00 0.00 51 1013.0
20260506235024 51 267 2.0 7.0 0.00 0.00 0.00 52 1013.0
20260506234519 51 292 2.0 5.0 0.00 0.00 0.00 52 1013.0
20260506234019 51 262 2.0 4.0 0.00 0.00 0.00 52 1013.0
20260506233520 52 249 2.0 3.0 0.00 0.00 0.00 52 1013.1
20260506233016 52 321 1.0 2.0 0.00 0.00 0.00 51 1012.9
20260506232519 52 13 2.0 5.0 0.00 0.00 0.00 51 1013.0
20260506232019 52 284 2.0 4.0 0.00 0.00 0.00 50 1013.0
20260506231521 52 323 2.0 4.0 0.00 0.00 0.00 50 1013.0
20260506231019 52 300 2.0 5.0 0.00 0.00 0.00 50 1012.9
20260506230519 53 279 2.0 4.0 0.00 0.00 0.00 49 1012.9
20260506230021 54 328 2.0 7.0 0.00 0.00 0.00 48 1012.9
20260506225519 55 315 3.0 7.0 0.00 0.00 0.00 47 1013.0
20260506225039 55 294 2.0 4.0 0.00 0.00 0.00 46 1012.9
20260506224517 55 277 3.0 8.0 0.00 0.00 0.00 46 1012.9
20260506224018 55 273 2.0 6.0 0.00 0.00 0.00 48 1012.9
20260506223517 54 276 2.0 5.0 0.00 0.00 0.00 47 1012.9
20260506223017 54 286 3.0 8.0 0.00 0.00 0.00 47 1012.9
20260506222522 55 281 3.0 7.0 0.00 0.00 0.00 47 1012.9
20260506222040 55 320 2.0 5.0 0.00 0.00 0.00 47 1012.9
20260506221520 55 235 2.0 5.0 0.00 0.00 0.00 47 1012.9
20260506221020 55 276 2.0 6.0 0.00 0.00 0.00 46 1012.9
20260506220521 55 288 3.0 10.0 0.00 0.00 0.00 47 1012.8
20260506220020 55 212 2.0 6.0 0.00 0.00 0.00 47 1012.7
20260506215520 55 282 3.0 8.0 0.00 0.00 0.00 46 1012.7
20260506215020 55 352 2.0 11.0 0.00 0.00 0.00 47 1012.8
20260506214521 54 245 3.0 8.0 0.00 0.00 0.00 47 1012.8
20260506214100 54 285 4.0 12.0 0.00 0.00 0.00 48 1012.8
20260506213519 54 265 3.0 10.0 0.00 0.00 0.00 48 1012.8
20260506213017 54 299 2.0 6.0 0.00 0.00 0.00 49 1012.9
20260506212541 54 313 3.0 7.0 0.00 0.00 0.00 47 1012.9
20260506212021 55 292 4.0 10.0 0.00 0.00 0.00 47 1012.9
20260506211542 54 276 2.0 6.0 0.00 0.00 0.00 48 1012.9
20260506211101 54 318 2.0 6.0 0.00 0.00 0.00 48 1012.9
20260506210521 54 306 3.0 10.0 0.00 0.00 0.00 47 1012.9
20260506210023 54 324 2.0 6.0 0.00 0.00 0.00 48 1012.9
20260506205518 54 331 3.0 10.0 0.00 0.00 0.00 47 1012.9
20260506205018 54 280 3.0 7.0 0.00 0.00 0.00 46 1012.9
20260506204539 54 274 3.0 7.0 0.00 0.00 0.00 47 1013.0
20260506204020 54 302 4.0 10.0 0.00 0.00 0.00 46 1013.0
20260506203541 54 317 4.0 9.0 0.00 0.00 0.00 46 1013.0
20260506203021 54 278 3.0 7.0 0.00 0.00 0.00 46 1013.0
20260506202523 55 289 4.0 10.0 0.00 0.00 0.00 45 1013.0
20260506202018 56 288 3.0 9.0 0.00 0.00 0.00 45 1013.1
20260506201519 56 257 2.0 7.0 0.00 0.00 0.00 44 1013.2
20260506201038 56 277 3.0 9.0 0.00 0.00 0.00 44 1013.3
20260506200520 56 306 2.0 7.0 0.00 0.00 0.00 45 1013.3
20260506200018 55 288 3.0 8.0 0.00 0.00 0.00 45 1013.2
20260506195518 55 250 4.0 9.0 0.00 0.00 0.00 45 1013.3
20260506195023 55 269 3.0 7.0 0.00 0.00 0.00 45 1013.2
20260506194523 54 188 2.0 4.0 0.00 0.00 0.00 47 1013.2
20260506194038 53 278 4.0 9.0 0.00 0.00 0.00 47 1013.3
20260506193520 53 282 4.0 10.0 0.00 0.00 0.00 47 1013.3